When you browse on this site, cookies collect data to enhance your experience and personalize the content and advertising you see.
Visit our Privacy Policy to learn more. By continuing to use the site, you agree to this use of cookies and data.
  • In Österreich
  • Länderverzeichnis
  • Für 7 Tage
  • Wassertemperatur
  • Wetterkarte
  • News
  • Widgets
  • user-avatar
    Anmelden

    Stündliche Wetter Potosi

    Heute, 20 Oktober, Sonntag

    Zeit Temperatur Niederschläge Wind Luftdruck Luftfeuchtigkeit
    00:00 +8°C° 0 mm 2 m/S 468 mmHg 62%
    01:00 +7°C° 0 mm 2 m/S 467 mmHg 62%
    02:00 +8°C° 0 mm 1 m/S 467 mmHg 62%
    03:00 +8°C° 0 mm 1 m/S 467 mmHg 61%
    04:00 +7°C° 0 mm 1 m/S 467 mmHg 60%
    05:00 +7°C° 0 mm 1 m/S 466 mmHg 58%
    06:00 +7°C° 0 mm 2 m/S 467 mmHg 52%
    07:00 +7°C° 0 mm 2 m/S 468 mmHg 46%
    08:00 +8°C° 0 mm 2 m/S 468 mmHg 48%
    09:00 +10°C° 0 mm 3 m/S 469 mmHg 39%
    10:00 +11°C° 0 mm 3 m/S 469 mmHg 30%
    11:00 +13°C° 0 mm 4 m/S 470 mmHg 21%
    12:00 +14°C° 0 mm 4 m/S 470 mmHg 20%
    13:00 +15°C° 0 mm 5 m/S 470 mmHg 18%
    14:00 +15°C° 0 mm 5 m/S 470 mmHg 17%
    15:00 +15°C° 0 mm 5 m/S 469 mmHg 18%
    16:00 +15°C° 0 mm 5 m/S 468 mmHg 19%
    17:00 +14°C° 0 mm 6 m/S 468 mmHg 19%
    18:00 +13°C° 0 mm 4 m/S 468 mmHg 23%
    19:00 +12°C° 0 mm 3 m/S 468 mmHg 27%
    20:00 +12°C° 0 mm 2 m/S 468 mmHg 30%
    21:00 +12°C° 0 mm 2 m/S 468 mmHg 36%
    22:00 +11°C° 0 mm 1 m/S 468 mmHg 42%
    23:00 +10°C° 0 mm 1 m/S 468 mmHg 47%

    Morgen, 21 Oktober, Montag

    Zeit Temperatur Niederschläge Wind Luftdruck Luftfeuchtigkeit
    00:00 +9°C° 0 mm 1 m/S 468 mmHg 49%
    01:00 +9°C° 0 mm 1 m/S 467 mmHg 50%
    02:00 +8°C° 0 mm 1 m/S 467 mmHg 51%
    03:00 +8°C° 0 mm 1 m/S 467 mmHg 50%
    04:00 +7°C° 0 mm 1 m/S 466 mmHg 49%
    05:00 +7°C° 0 mm 1 m/S 466 mmHg 48%
    06:00 +7°C° 0 mm 1 m/S 467 mmHg 41%
    07:00 +8°C° 0 mm 1 m/S 468 mmHg 35%
    08:00 +9°C° 0 mm 1 m/S 468 mmHg 28%
    09:00 +10°C° 0 mm 1 m/S 469 mmHg 24%
    10:00 +12°C° 0 mm 2 m/S 470 mmHg 20%
    11:00 +13°C° 0 mm 2 m/S 470 mmHg 16%
    12:00 +13°C° 0 mm 3 m/S 470 mmHg 16%
    13:00 +14°C° 0 mm 3 m/S 470 mmHg 16%
    14:00 +15°C° 0 mm 4 m/S 470 mmHg 17%
    15:00 +15°C° 0.1 mm 5 m/S 470 mmHg 20%
    16:00 +14°C° 0.1 mm 5 m/S 469 mmHg 23%
    17:00 +14°C° 0.1 mm 5 m/S 469 mmHg 27%
    18:00 +12°C° 0.2 mm 4 m/S 468 mmHg 36%
    19:00 +11°C° 0.2 mm 3 m/S 468 mmHg 45%
    20:00 +9°C° 0.2 mm 2 m/S 467 mmHg 54%
    21:00 +9°C° 0 mm 2 m/S 467 mmHg 59%
    22:00 +8°C° 0 mm 2 m/S 467 mmHg 64%
    23:00 +8°C° 0 mm 2 m/S 468 mmHg 70%

    übermorgen, 22 Oktober, Dienstag

    Zeit Temperatur Niederschläge Wind Luftdruck Luftfeuchtigkeit
    00:00 +8°C° 0 mm 1 m/S 467 mmHg 70%
    01:00 +8°C° 0 mm 1 m/S 467 mmHg 70%
    02:00 +7°C° 0 mm 1 m/S 466 mmHg 69%
    03:00 +7°C° 0 mm 1 m/S 466 mmHg 69%
    04:00 +6°C° 0 mm 1 m/S 466 mmHg 70%
    05:00 +6°C° 0 mm 1 m/S 465 mmHg 70%
    06:00 +6°C° 0 mm 1 m/S 466 mmHg 63%
    07:00 +7°C° 0 mm 1 m/S 467 mmHg 57%
    08:00 +8°C° 0 mm 1 m/S 468 mmHg 50%
    09:00 +10°C° 0 mm 1 m/S 468 mmHg 41%
    10:00 +10°C° 0 mm 2 m/S 469 mmHg 31%
    11:00 +13°C° 0 mm 2 m/S 470 mmHg 22%
    12:00 +14°C° 0 mm 2 m/S 470 mmHg 21%
    13:00 +14°C° 0 mm 3 m/S 470 mmHg 21%
    14:00 +15°C° 0 mm 4 m/S 470 mmHg 20%
    15:00 +14°C° 0.2 mm 4 m/S 469 mmHg 25%
    16:00 +14°C° 0.2 mm 4 m/S 468 mmHg 29%
    17:00 +13°C° 0.2 mm 5 m/S 467 mmHg 33%
    18:00 +12°C° 0.1 mm 4 m/S 467 mmHg 40%
    19:00 +10°C° 0.1 mm 4 m/S 467 mmHg 46%
    20:00 +9°C° 0.1 mm 3 m/S 467 mmHg 53%
    21:00 +9°C° 0 mm 3 m/S 467 mmHg 56%
    22:00 +8°C° 0 mm 2 m/S 467 mmHg 60%
    23:00 +7°C° 0 mm 2 m/S 467 mmHg 63%

    23 Oktober, Mittwoch

    Zeit Temperatur Niederschläge Wind Luftdruck Luftfeuchtigkeit
    00:00 +8°C° 0 mm 1 m/S 466 mmHg 59%
    01:00 +8°C° 0 mm 1 m/S 466 mmHg 56%
    02:00 +7°C° 0 mm 1 m/S 466 mmHg 52%
    03:00 +7°C° 0 mm 1 m/S 466 mmHg 47%
    04:00 +6°C° 0 mm 1 m/S 465 mmHg 42%
    05:00 +6°C° 0 mm 1 m/S 465 mmHg 38%
    06:00 +7°C° 0 mm 1 m/S 466 mmHg 31%
    07:00 +8°C° 0 mm 1 m/S 467 mmHg 25%
    08:00 +10°C° 0 mm 1 m/S 469 mmHg 19%
    09:00 +11°C° 0 mm 1 m/S 469 mmHg 17%
    10:00 +13°C° 0 mm 2 m/S 470 mmHg 16%
    11:00 +14°C° 0 mm 2 m/S 471 mmHg 15%
    12:00 +14°C° 0 mm 3 m/S 470 mmHg 16%
    13:00 +14°C° 0 mm 3 m/S 470 mmHg 18%
    14:00 +15°C° 0 mm 4 m/S 470 mmHg 20%
    15:00 +14°C° 0.1 mm 5 m/S 469 mmHg 28%
    16:00 +13°C° 0.1 mm 5 m/S 468 mmHg 36%
    17:00 +11°C° 0.1 mm 6 m/S 467 mmHg 44%
    18:00 +10°C° 0.2 mm 5 m/S 467 mmHg 50%
    19:00 +8°C° 0.2 mm 4 m/S 466 mmHg 57%
    20:00 +7°C° 0.2 mm 4 m/S 466 mmHg 63%
    21:00 +8°C° 0 mm 3 m/S 466 mmHg 65%
    22:00 +7°C° 0 mm 2 m/S 466 mmHg 66%
    23:00 +8°C° 0 mm 1 m/S 467 mmHg 67%

    24 Oktober, Donnerstag

    Zeit Temperatur Niederschläge Wind Luftdruck Luftfeuchtigkeit
    00:00 +8°C° 0 mm 1 m/S 466 mmHg 69%
    01:00 +7°C° 0 mm 1 m/S 466 mmHg 71%
    02:00 +7°C° 0 mm 1 m/S 465 mmHg 74%
    03:00 +6°C° 0 mm 1 m/S 465 mmHg 77%
    04:00 +6°C° 0 mm 1 m/S 465 mmHg 80%
    05:00 +5°C° 0 mm 1 m/S 465 mmHg 83%
    06:00 +6°C° 0 mm 1 m/S 465 mmHg 78%
    07:00 +7°C° 0 mm 1 m/S 466 mmHg 72%
    08:00 +7°C° 0 mm 1 m/S 467 mmHg 66%
    09:00 +9°C° 0 mm 1 m/S 468 mmHg 56%
    10:00 +10°C° 0 mm 2 m/S 469 mmHg 46%
    11:00 +13°C° 0 mm 2 m/S 470 mmHg 36%
    12:00 +13°C° 0.1 mm 3 m/S 470 mmHg 34%
    13:00 +14°C° 0.1 mm 3 m/S 470 mmHg 33%
    14:00 +14°C° 0.1 mm 4 m/S 470 mmHg 31%
    15:00 +13°C° 0.6 mm 5 m/S 468 mmHg 38%
    16:00 +11°C° 0.6 mm 6 m/S 467 mmHg 46%
    17:00 +9°C° 0.6 mm 6 m/S 466 mmHg 53%
    18:00 +8°C° 0.4 mm 5 m/S 466 mmHg 54%
    19:00 +7°C° 0.4 mm 4 m/S 466 mmHg 55%
    20:00 +7°C° 0.4 mm 3 m/S 466 mmHg 56%
    21:00 +7°C° 0 mm 2 m/S 466 mmHg 58%
    22:00 +7°C° 0 mm 2 m/S 467 mmHg 59%
    23:00 +8°C° 0 mm 1 m/S 467 mmHg 61%

    25 Oktober, Freitag

    Zeit Temperatur Niederschläge Wind Luftdruck Luftfeuchtigkeit
    00:00 +8°C° 0 mm 1 m/S 467 mmHg 65%
    01:00 +8°C° 0 mm 1 m/S 466 mmHg 69%
    02:00 +6°C° 0 mm 2 m/S 466 mmHg 73%
    03:00 +6°C° 0 mm 2 m/S 466 mmHg 76%
    04:00 +5°C° 0 mm 2 m/S 465 mmHg 79%
    05:00 +5°C° 0 mm 2 m/S 465 mmHg 82%
    06:00 +6°C° 0 mm 2 m/S 466 mmHg 74%
    07:00 +7°C° 0 mm 2 m/S 467 mmHg 66%
    08:00 +8°C° 0 mm 2 m/S 468 mmHg 58%
    09:00 +10°C° 0 mm 2 m/S 469 mmHg 48%
    10:00 +13°C° 0 mm 2 m/S 470 mmHg 38%
    11:00 +15°C° 0 mm 2 m/S 471 mmHg 28%
    12:00 +16°C° 0.1 mm 3 m/S 470 mmHg 27%
    13:00 +15°C° 0.1 mm 4 m/S 470 mmHg 26%
    14:00 +16°C° 0.1 mm 5 m/S 470 mmHg 26%
    15:00 +14°C° 1 mm 5 m/S 468 mmHg 37%
    16:00 +10°C° 1 mm 5 m/S 466 mmHg 48%
    17:00 +8°C° 1 mm 5 m/S 464 mmHg 60%
    18:00 +8°C° 0.1 mm 4 m/S 465 mmHg 60%
    19:00 +9°C° 0.1 mm 3 m/S 465 mmHg 59%
    20:00 +9°C° 0.1 mm 3 m/S 466 mmHg 59%
    21:00 +8°C° 0 mm 2 m/S 466 mmHg 60%
    22:00 +8°C° 0 mm 2 m/S 466 mmHg 60%
    23:00 +8°C° 0 mm 2 m/S 466 mmHg 61%
    Mehr zeigen